Flag for Germany Weather past 2 weeks in Bremerhaven, Bremen, Germany

Now
52 °F

Passing clouds.


Feels Like: 49 °F
Forecast: 47 / 61 °F
Wind: 8 mph from North

Location: Nordholz

Current Time: Sep 23, 2014 at 12:36:16 AM

Latest Report: Sep 22, 2014 at 11:20 PM


Visibility: N/A

Pressure: 30.09 "Hg

Humidity: 72%

Dew point: 43 °F

Location of BremerhavenLocation

Historic Weather in Bremerhaven — Graph

°F

Bremerhaven temperature yesterday

Maximum temperature yesterday: 59 °F (at 1:20 AM)
Minimum temperature yesterday: 52 °F (at 11:20 PM)
Average temperature yesterday: 56 °F

Past Weeks' High & Low Weather Summary

 TemperatureHumidityPressure
High75 °F (Sep 19, 3:20 PM)100% (Sep 8, 12:20 AM)30.27 "Hg (Sep 8, 12:20 AM)
Low52 °F (Sep 22, 11:20 PM)51% (Sep 22, 11:20 AM)29.89 "Hg (Sep 18, 3:20 PM)
Average61 °F81%30.05 "Hg
* Reported Sep 7 11:20 PM — Sep 22 11:20 PM, Bremerhaven, Weather by CustomWeather, © 2014

Note: Actual official high and low records may vary slightly from our data, if they occured in-between our weather recording intervals... More about our weather records

Advertising

Bremerhaven weather history for previous 24 hours

 ConditionsComfort  
Time TempWeatherWind HumidityBarometerVisibility
11:20 PM
Sep 22
52 °FPassing clouds.8 mph72%30.09 "HgN/A
10:20 PM54 °FPassing clouds.10 mph67%30.09 "HgN/A
9:20 PM55 °FPassing clouds.9 mph67%30.07 "HgN/A
8:20 PM57 °FDrizzle. Partly sunny.10 mph67%30.07 "HgN/A
7:20 PM57 °FPartly sunny.13 mph63%30.04 "HgN/A
6:20 PM57 °FPartly sunny.17 mph63%30.04 "HgN/A
5:20 PM57 °FPartly sunny.18 mph63%30.01 "HgN/A
4:20 PM59 °FScattered clouds.21 mph55%30.01 "HgN/A
3:20 PM59 °FScattered clouds.22 mph55%30.01 "HgN/A
2:20 PM57 °FScattered clouds.17 mph55%29.98 "HgN/A
1:20 PM57 °FScattered clouds.21 mph51%29.98 "HgN/A
12:20 PM57 °FScattered clouds.21 mph51%29.98 "HgN/A
11:20 AM57 °FPassing clouds.20 mph51%29.95 "HgN/A
10:20 AM55 °FScattered clouds.15 mph63%29.95 "HgN/A
9:20 AM54 °FBroken clouds.12 mph67%29.92 "HgN/A
8:20 AM55 °FBroken clouds.15 mph59%29.89 "HgN/A
7:20 AM54 °FScattered showers. Partly cloudy.18 mph77%29.89 "HgN/A
6:20 AM55 °FPassing clouds.21 mph77%29.89 "HgN/A
5:20 AM55 °FPassing clouds.24 mph72%29.89 "HgN/A
4:20 AM57 °FPassing clouds.21 mph55%29.92 "HgN/A
3:20 AM57 °FPassing clouds.20 mph63%29.92 "HgN/A
2:20 AM55 °FPassing clouds.21 mph77%29.95 "HgN/A
1:20 AM59 °FPassing clouds.18 mph59%29.95 "HgN/A
12:20 AM57 °FPassing clouds.22 mph63%29.95 "HgN/A
Weather by CustomWeather, © 2014

See weather overviewHow to use our weather pages